Tracking 29932 objects as of 4-Dec-2024
HD Live streaming from Space Station
objects crossing your sky now

STARLINK-32226

Track STARLINK-32226 now!
10-day predictions
STARLINK-32226 is classified as:


NORAD ID: 60426
Int'l Code: 2024-144B
Perigee: 481.5 km
Apogee: 483.2 km
Inclination: 53.2 °
Period: 94.1 minutes
Semi major axis: 6853 km
RCS: Unknown
Launch date: August 12, 2024
Source: United States (US)
Launch site: AIR FORCE EASTERN TEST RANGE (AFETR)
Your satellite tracking list
Your tracking list is empty




NASA's NSSDC Master Catalog

Two Line Element Set (TLE):
1 60426U 24144B   24338.88121508  .00000417  00000-0  26193-4 0  9993
2 60426  53.1607 197.8083 0001237  82.6374 277.4767 15.30199925 18756
Source of the keplerian elements: AFSPC